Powrót do katalogu

STARLINK-2150

AktywnyŁącznośćVLEO
NORAD 47739·PAYLOAD·🇺🇸 United States

Wystrzelony Mar 4, 2021 z Cape Canaveral Space Force Station

Loading…

Następne Przeloty (najbliższe 24 godziny)

TLE

ŚwieżeSource: CelesTrak SupGP

Epoka: Sep 15, 2026, 01:40 UTC

1 47739C 21017T   26258.06993056 -.00027687  00000+0 -89023-3 0  2586
2 47739  53.1583  57.8768 0001127  94.4120 256.3836 15.31720413    10

Śledź STARLINK-2150 w czasie rzeczywistym z AllMySat

Download on the App Store